Regional Weather Roundup
Issued by NWS

Home | Current Version | Previous Version | Text Only | Print | Product List | Glossary Off
Versions: 1 2 3 4 5 6 7 8 9 10 11 12 13 14 15 16 17 18 19 20 21 22 23 24 25 26 27 28 29 30 31 32 33 34 35 36 37 38 39 40 41 42 43 44 45 46 47 48

000
ASUS45 KSLC 280310
RWRUT

UTAH REGIONAL WEATHER ROUNDUP
NATIONAL WEATHER SERVICE SALT LAKE CITY UT
800 PM MST TUE JAN 27 2015

UTZ001>011-023>025-280400-

NORTHERN UTAH

CITY           SKY/WX    TMP DP  RH WIND       PRES   REMARKS
BRIGHAM CITY   CLOUDY    39  35  86 NE13      30.17R WCI  32
HILL AFB       CLOUDY    45  31  56 SE5       30.14S
LOGAN          MOCLDY    37  34  89 N7        30.15S WCI  32
OGDEN          CLOUDY    41  39  93 NW8       30.14S
PROVO AIRPORT  MOCLDY    39  34  81 CALM      30.19R
SALT LAKE CITY PTCLDY    41  36  82 CALM      30.14S
VERNAL         CLOUDY    37  26  64 W3        30.23R
WENDOVER       MOCLDY    39  32  75 CALM      30.15S
HEBER CITY     MOCLDY    36  32  87 CALM      30.18S
WEST JORDAN    CLEAR     48  37  66 SE14      30.15S

$$

UTZ012>022-026-027-280400-

SOUTHERN/CENTRAL UTAH

CITY           SKY/WX    TMP DP  RH WIND       PRES   REMARKS
BLANDING       PTCLDY    38  32  77 N6        30.35S WCI  34
BRYCE CANYON   PTCLDY    31  29  92 CALM      30.30R
CEDAR CITY     CLEAR     39  34  82 SW10      30.24R WCI  32
DELTA          PTCLDY    43  34  70 S9        30.20R
MILFORD        PTCLDY    41  33  73 S9        30.22R
MOAB/CYNLANDS  MOCLDY    43  33  68 CALM      30.23S
PRICE          CLOUDY    40  28  62 E3        30.25R
ST GEORGE      PTCLDY    52  45  76 S5        30.25R
KANAB          CLEAR     41  37  87 NE3       30.30R

$$

REGIONAL REPORTS     COLORADO/ARIZONA

CITY           SKY/WX    TMP DP  RH WIND       PRES   REMARKS
CRAIG, CO      CLOUDY    35  30  82 CALM      30.24R
GRAND JUNCTION PTCLDY    33  28  81 CALM      30.25R
RIFLE          MOCLDY    40  27  59 S5        30.25R
MONTROSE       CLEAR     36  24  62 SE8       30.28R WCI  30
CORTEZ         MOCLDY    37  30  75 NE8       30.28S WCI  31
PAGE, AZ       NOT AVBL
GRAND CANYON   PTCLDY    38  34  85 CALM      30.30R
KINGMAN        MOCLDY    50  46  86 S7        30.23R
FLAGSTAFF      PTCLDY    34  29  82 CALM      30.32R

$$

REGIONAL REPORTS    NEVADA/IDAHO/WYOMING

CITY           SKY/WX    TMP DP  RH WIND       PRES   REMARKS
LAS VEGAS, NV  PTCLDY    58  48  69 S5        30.17R
ELY            CLOUDY    37  33  85 S13       30.22R WCI  29
ELKO           CLOUDY    40  37  89 W15       30.16R WCI  32
POCATELLO, ID  CLOUDY    46  37  71 S13       30.12S
BURLEY         CLOUDY    43  37  79 W8        30.09S
EVANSTON, WY   PTCLDY    36  30  79 S7        30.18S WCI  30
ROCK SPRINGS   CLOUDY    38  24  57 S7        30.16S WCI  33
KEMMERER       PTCLDY    34  30  86 W3        30.18S

$$



USA.gov is the U.S. government's official web portal to all federal, state and local government web resources and services.